Powrót do katalogu

COSMOS 1386

AktywnyMilitariaPO
NORAD 13353·PAYLOAD·🇷🇺 Russia

Wystrzelony Jul 7, 1982 z Plesetsk Cosmodrome

Loading…

Następne Przeloty (najbliższe 24 godziny)

TLE

ŚwieżeSource: Space-Track

Epoka: Sep 14, 2026, 07:35 UTC

1 13353U 82069A   26257.31613303  .00000048  00000-0  33350-4 0  9992
2 13353  82.9632  39.6218 0038874 174.5748 185.5838 13.76634221219243

Śledź COSMOS 1386 w czasie rzeczywistym z AllMySat

Download on the App Store